Location: Austin
(30.3000°N, 97.7500°W)
Time: 23:53:50
(UTC-05:00)

Cosmos 2082 Rocket - Pass Details

Date: 18 March 2026
Orbit: 831 x 854 km, 71.0° (Epoch: 20 April)

Event Time Altitude Azimuth Distance (km) Brightness Sun altitude
Rises 20:16:16 0° 326° (NW) 3,423 6.0 -8.4°
Reaches altitude 10° 20:19:02 10° 315° (NW) 2,483 5.4 -9.0°
Maximum altitude 20:23:48 28° 258° (WSW) 1,535 4.5 -10.0°
Drops below altitude 10° 20:28:34 10° 200° (SSW) 2,463 4.8 -11.0°
Sets 20:31:18 0° 189° (S) 3,392 5.4 -11.6°
